Location: Ar Boullen
(48.4167°N, 5.0000°W)
Time: 00:10:06
(UTC+00:00)

Daily predictions for brighter satellites

Satellite Brightness Start Highest point End
(mag) Time Altitude Azimuth Time Altitude Azimuth Time Altitude Azimuth
SL-16 R/B 4.3 01:51:00 25° N 01:51:00 25° N 01:53:26 10° N
Resurs 1-4 Rocket 4.3 02:01:36 10° NNE 02:03:14 20° NNE 02:03:14 20° NNE
CZ-2D R/B 4.1 02:17:02 10° NNE 02:18:59 23° NNE 02:18:59 23° NNE
Lacrosse 4 Rocket 4.4 02:30:46 14° NNE 02:31:01 14° NNE 02:33:20 10° ENE
Cosmos 2082 Rocket 4.0 02:38:49 24° E 02:38:49 24° E 02:43:05 10° NE
ADEOS II 3.7 02:39:53 10° NNE 02:42:28 30° NNE 02:42:28 30° NNE
COSMOS 2406 4.1 03:01:52 44° E 03:01:52 44° E 03:06:49 10° NE
Cosmos 1605 Rocket 4.1 03:06:05 68° NE 03:06:05 68° NE 03:11:31 10° NNE
ATLAS CENTAUR R/B 3.1 03:08:06 37° NE 03:08:06 37° NE 03:11:06 10° NE
MSX 4.4 03:06:28 10° NNE 03:10:47 51° N 03:10:47 51° N
Meteor 1-11 Rocket 4.1 03:10:47 10° N 03:16:44 65° ENE 03:18:13 49° SE
Cosmos 1980 Rocket 4.1 03:13:15 10° NNW 03:23:06 18° SE 03:24:27 10° SSE
ATLAS 5 CENTAUR R/B 4.2 03:23:23 12° NNW 03:25:00 14° N 03:27:33 10° NE
Cosmos 44 Rocket 4.0 03:26:24 48° ENE 03:26:24 48° ENE 03:30:05 10° NE
CBERS-1 4.3 03:28:23 10° NNE 03:33:30 62° ESE 03:33:55 59° SE
Cosmos 2056 Rocket 3.8 03:35:20 58° N 03:35:20 58° N 03:39:32 10° NNE
Cosmos 1420 Rocket 4.0 03:38:26 71° N 03:38:26 71° N 03:43:06 10° NNE
Cosmos 1346 Rocket 4.5 03:40:21 28° NNE 03:40:21 28° NNE 03:42:20 10° NNE
Cosmos 1461 4.2 03:42:22 35° ESE 03:42:22 35° ESE 03:45:57 10° NE
Cosmos 2278 4.0 03:37:23 10° NNW 03:43:02 66° ENE 03:48:39 10° SE
SL-16 R/B 3.6 03:38:04 10° NNW 03:43:20 37° NE 03:48:34 10° ESE
ALOS 2.4 03:38:54 10° NNE 03:43:35 69° ESE 03:43:37 69° ESE
IRS-1D 3.7 03:38:23 10° N 03:43:03 63° NNW 03:43:03 63° NNW
USA 305 4.0 03:44:58 39° NNE 03:44:58 39° NNE 03:48:01 10° ENE
Cosmos 1470 Rocket 4.5 03:40:32 10° N 03:43:30 42° N 03:43:30 42° N
Resurs 1-4 Rocket 4.1 03:42:29 10° NNW 03:44:17 16° NNW 03:44:17 16° NNW
BREEZE-M R/B 4.2 03:46:08 56° WNW 03:47:39 81° N 03:59:27 10° E
IDEFIX/ARIANE 42P 4.0 03:43:31 10° N 03:46:26 25° NNW 03:46:26 25° NNW
FENGYUN 3A 3.5 03:45:26 10° NNE 03:50:51 87° WNW 03:51:35 68° SSW
Cosmos 1833 Rocket 3.1 03:54:43 44° NW 03:54:43 44° NW 03:59:57 10° NNE
Cosmos 1741 Rocket 4.2 03:51:21 10° NNW 03:56:36 69° ENE 04:01:46 10° SSE
CZ-2D R/B 4.1 03:58:34 10° NNW 04:00:17 14° NW 04:00:17 14° NW
MINOTAUR IV R/B 4.5 04:01:49 16° NNW 04:05:22 85° ENE 04:09:52 10° SSE
Lacrosse 4 Rocket 1.9 04:07:07 17° NNW 04:10:28 63° NE 04:14:53 10° SE
Cosmos 1484 Rocket 4.1 04:07:33 10° NNE 04:11:19 39° E 04:14:54 11° SSE
Meteor 1-27 Rocket 3.7 04:10:33 38° SSW 04:12:53 74° WNW 04:18:51 10° N
ARIANE 5 R/B 2.9 04:08:24 10° NNE 04:13:22 60° ESE 04:18:02 11° S
Helios 1B rocket 2.4 04:09:58 10° NNE 04:14:04 76° ESE 04:15:11 47° S
CZ-2C R/B 2.7 04:09:39 10° SSE 04:14:55 80° ENE 04:20:19 10° NNW
CENTAUR R/B 2.5 04:14:25 34° SSW 04:17:12 79° SE 04:24:22 10° NE
Cosmos 2100 Rocket 3.8 04:15:24 21° SSW 04:19:40 79° W 04:25:53 10° N
Cosmos 2333 Rocket 4.3 04:15:15 10° NNW 04:19:59 26° NE 04:24:40 10° E
Cosmos 1110 Rocket 4.4 04:16:35 17° S 04:20:29 61° ESE 04:25:36 10° NNE
Cosmos 2016 Rocket 4.3 04:15:11 10° S 04:21:29 70° E 04:27:51 10° NNE
Cosmos 2082 Rocket 2.2 04:20:42 44° WSW 04:22:20 62° WNW 04:27:56 10° NNE
ADEOS II 3.9 04:20:56 10° NNW 04:23:23 16° NW 04:23:23 16° NW
Okean 1 3.2 04:23:13 37° S 04:24:44 87° E 04:28:47 10° N
USA 276 4.3 04:26:13 17° SSE 04:26:38 17° SE 04:28:44 10° E
Cosmos 1452 Rocket 3.4 04:24:11 31° SSW 04:26:47 84° WNW 04:32:06 10° NNE
Cosmos 2360 Rocket 3.6 04:22:05 10° NNW 04:27:21 38° NE 04:32:35 10° ESE
Cosmos 1869 Rocket 4.1 04:23:12 10° N 04:27:36 59° ENE 04:31:55 10° SSE
USA 307 3.7 04:27:02 34° NW 04:27:58 39° N 04:31:52 10° ENE
ERBS 4.4 04:28:31 15° N 04:28:33 15° N 04:30:22 10° NE
CZ-2C R/B 2.4 04:23:55 10° N 04:28:48 60° WNW 04:30:30 37° SW
Cosmos 1441 Rocket 4.5 04:30:49 26° NW 04:30:49 26° NW 04:33:04 10° N
Cosmos 968 Rocket 4.4 04:24:34 10° NNW 04:29:37 50° ENE 04:34:35 10° SE
Envisat 3.8 04:24:46 10° NNE 04:29:45 52° E 04:34:41 10° S
Cosmos 1816 Rocket 4.4 04:28:15 10° N 04:34:29 87° W 04:40:37 10° S
Orbus 7S? 3.7 04:33:42 43° WNW 04:34:31 53° NNW 04:40:31 10° NE
USA 306 3.8 04:35:54 28° NW 04:37:18 37° N 04:41:09 10° ENE
H-2A R/B 4.2 04:37:14 10° NNE 04:40:40 36° E 04:44:05 10° SSE
SL-24 R/B - RUBIN 2 3.5 04:38:52 29° SSW 04:41:05 82° SE 04:45:27 10° NE
Cosmos 2061 Rocket 4.0 04:35:39 10° S 04:41:50 82° E 04:48:04 10° N
ATLAS CENTAUR R/B 2.9 04:44:03 24° WNW 04:45:24 27° NW 04:49:32 10° NNE
COSMOS 2406 3.9 04:43:57 28° W 04:45:53 36° NW 04:51:06 10° NNE
Cosmos 1459 Rocket 4.1 04:40:10 12° SSW 04:45:55 57° WNW 04:52:13 10° N
IKONOS-2 4.4 04:43:07 10° S 04:47:20 76° WSW 04:51:37 10° NNW
X-37B 2.5 04:49:24 16° S 04:49:24 16° S 04:50:40 10° SSE
Cosmos 1933 Rocket 3.9 04:45:17 10° NNW 04:49:29 42° W 04:53:37 10° SSW
CZ-2D R/B 3.2 04:46:11 10° NNE 04:50:10 79° WNW 04:54:12 10° SSW
DELTA 2 DEB (DPAF) 4.1 04:46:34 10° S 04:50:54 57° WSW 04:55:16 10° NNW
Meteor 2-4 Rocket 4.0 04:45:21 10° S 04:51:02 71° E 04:56:36 10° NNE
NOSS 3-2 (A) 3.4 04:48:58 25° WSW 04:52:21 67° NW 04:58:54 10° NE
NOSS 3-2 (C) 3.4 04:48:34 15° SSW 04:53:12 77° SE 04:59:38 10° NE
Cosmos 1864 Rocket 4.4 04:47:45 10° SSW 04:54:00 74° W 05:00:22 10° N
IRS-1C 4.2 04:50:32 10° N 04:55:45 55° WNW 05:00:48 11° SW
Cosmos 1975 2.6 04:52:09 10° NNW 04:56:09 79° W 05:00:06 10° S
Cosmos 2322 Rocket 2.3 04:51:18 10° NNW 04:57:02 84° ENE 05:02:41 10° SSE
SL-08 R/B 3.3 04:54:06 10° S 04:58:43 60° WSW 05:03:29 10° NNW
Cosmos 2237 4.2 04:53:07 10° NNW 04:58:51 89° WSW 05:04:33 10° SSE
Cosmos 1242 Rocket 2.5 04:56:31 10° N 04:59:58 76° E 05:03:21 10° SSE
OPS 6432 4.2 04:59:04 28° WNW 05:00:25 56° SW 05:03:47 10° SSE
CZ-2C R/B 3.8 04:57:09 10° NNE 05:00:52 48° E 05:04:37 10° S
Cosmos 1980 Rocket 3.9 05:05:11 13° SW 05:05:11 13° SW 05:06:01 10° SW
Cosmos 2233 Rocket 4.1 04:56:28 10° S 05:02:47 85° E 05:09:08 10° N
USA 308 3.9 05:01:01 19° WNW 05:03:32 37° N 05:07:23 10° ENE
Cosmos 1378 3.6 05:04:37 23° SW 05:06:15 36° WNW 05:09:40 10° N
COSMOS 2455 3.1 05:00:19 10° NNW 05:06:22 73° NE 05:12:23 10° SE
Cosmos 44 Rocket 4.3 05:05:08 20° WNW 05:07:16 28° NW 05:11:21 10° NNE
USA 238 DEB 3.6 05:02:32 10° SW 05:08:59 87° SE 05:15:54 10° NE
USA 238 3.6 05:02:39 10° SW 05:09:05 86° SE 05:16:00 10° NE
Cosmos 1805 4.1 05:05:19 10° N 05:09:08 52° ENE 05:12:54 10° SSE
Tsikada Rocket 4.0 05:04:24 10° NNW 05:10:38 66° W 05:16:46 10° S
ATLAS 5 CENTAUR R/B 3.9 05:06:56 10° NNW 05:11:08 27° NNE 05:16:03 10° E
SKYMED 2 4.2 05:08:17 10° SSE 05:12:34 61° ENE 05:16:52 10° N
Cosmos 1725 Rocket 4.1 05:09:32 10° SSW 05:15:43 55° WNW 05:21:57 10° N
Cosmos 1802 Rocket 4.3 05:09:44 10° SW 05:15:46 44° WNW 05:21:45 10° N
GP-B 3.5 05:13:27 10° SSW 05:17:36 40° W 05:21:48 10° NNW
Cosmos 1733 3.3 05:16:22 10° N 05:20:07 77° E 05:23:51 10° SSE
ALOS 3.8 05:17:22 10° NNW 05:20:27 18° WNW 05:22:04 15° W
Cosmos 1461 3.7 05:18:38 18° W 05:21:05 33° NW 05:24:59 10° NNE
USA 305 3.8 05:20:26 12° WNW 05:23:57 38° N 05:27:49 10° ENE
USA 290 2.4 05:21:07 10° NNW 05:24:21 74° ENE 05:27:32 10° SSE
SL-16 R/B 2.5 05:22:11 10° NW 05:27:31 43° WSW 05:32:50 10° S
Cosmos 1862 Rocket 4.1 05:25:10 10° S 05:29:35 64° E 05:34:00 10° NNE
NOAA 11 4.2 05:24:18 10° NNE 05:29:48 88° WNW 05:35:16 10° SSW
USA 234 4.3 05:26:52 10° ENE 05:33:06 45° SE 05:39:19 10° SSW
SJ 16-02 3.2 05:30:23 10° N 05:34:21 33° ENE 05:38:20 10° SE
SJ-6F 4.4 05:33:14 10° N 05:37:23 75° WNW 05:41:29 10° SSW
SJ-12 3.9 05:34:18 10° NNE 05:38:25 89° E 05:42:31 10° SSW
YAOGAN 6 3.7 05:36:16 10° NNW 05:39:14 24° WNW 05:42:13 10° WSW
Cosmos 2228 Rocket 3.5 05:36:22 10° SW 05:40:35 41° WNW 05:44:48 10° N
Cosmos 1726 2.1 05:40:45 10° N 05:44:23 84° E 05:48:00 10° S
Spot 4 Rocket 4.3 05:40:06 10° N 05:45:01 46° WNW 05:49:53 10° SW
Cosmos 1484 Rocket 4.1 05:42:19 10° NNW 05:45:22 21° WNW 05:48:23 10° WSW
SKYMED 3 4.4 05:42:03 10° S 05:46:11 73° WSW 05:50:21 10° NNW
BREEZE M DEB (TANK) 3.2 05:43:42 10° WSW 05:46:36 89° NNW 05:54:16 10° ENE
Cosmos 1486 Rocket 4.1 05:41:55 10° NNW 05:47:17 86° ENE 05:52:34 10° SSE
Cosmos 2219 Rocket 2.7 05:42:40 10° NNW 05:48:19 67° ENE 05:53:54 10° SE
Helios 1B rocket 4.3 05:46:39 10° NNW 05:48:37 13° WNW 05:50:36 10° W
Lacrosse 4 Rocket 3.0 05:45:43 10° WNW 05:48:39 18° WSW 05:51:36 10° SSW
Meteor 1-29 4.0 05:46:19 10° NNW 05:49:02 24° WNW 05:51:45 10° WSW
Lacrosse 5 rocket 2.7 05:44:54 10° SSW 05:49:14 44° SE 05:53:31 10° ENE
Cosmos 1302 Rocket 4.2 05:45:12 10° SW 05:50:24 56° WNW 05:55:38 10° NNE
Cosmos 1833 4.5 05:44:57 10° SSW 05:50:40 78° ESE 05:56:29 10° NNE
ARIANE 5 R/B 3.7 05:48:16 10° N 05:52:03 22° WNW 05:55:50 10° WSW
DMSP B5D2-2 4.2 05:49:56 10° S 05:55:05 56° W 06:00:19 10° NNW
CZ-2C R/B 4.0 05:52:39 10° SW 05:55:53 16° W 05:59:10 10° NW
